contact:dominique.lefevre@mio.osupytheas.fr, maurice.libes@osupytheas.fr, didier.mallarino@osupytheas.fr
Project:EMSO http://www.emso-fr.org/EMSO-France
Depth: 2436.0 m
Title:EMSO Ligure Ouest : Data MII capteur MICROCAT
DateTime_Computer,Latitude,Longitude,Temperature,Conductivity,Pressure,DateTime_Instrument
DateTime_Computer,Latitude,Longitude,degC,S m-1,dbar,DateTime_Instrument
2022-08-10T00:00:24Z,42.805,6.029,13.3009,4.60046,2470.577,2022-8-10T02:02:13Z
2022-08-10T00:03:27Z,42.805,6.029,13.3009,4.60043,2470.577,2022-8-10T02:05:16Z
2022-08-10T00:06:30Z,42.805,6.029,13.3002,4.60044,2470.577,2022-8-10T02:08:19Z
2022-08-10T00:09:33Z,42.805,6.029,13.3009,4.60044,2470.577,2022-8-10T02:11:22Z
2022-08-10T00:12:37Z,42.805,6.029,13.3008,4.60044,2470.553,2022-8-10T02:14:25Z
2022-08-10T00:15:40Z,42.805,6.029,13.3004,4.60043,2470.577,2022-8-10T02:17:28Z
2022-08-10T00:18:43Z,42.805,6.029,13.3006,4.60045,2470.591,2022-8-10T02:20:31Z
2022-08-10T00:21:46Z,42.805,6.029,13.3004,4.60043,2470.591,2022-8-10T02:23:35Z
2022-08-10T00:24:49Z,42.805,6.029,13.3008,4.60046,2470.591,2022-8-10T02:26:38Z
2022-08-10T00:27:52Z,42.805,6.029,13.3006,4.60046,2470.567,2022-8-10T02:29:41Z
2022-08-10T00:30:55Z,42.805,6.029,13.3000,4.60049,2470.553,2022-8-10T02:32:44Z
2022-08-10T00:33:58Z,42.805,6.029,13.3006,4.60044,2470.577,2022-8-10T02:35:47Z
2022-08-10T00:37:01Z,42.805,6.029,13.3006,4.60047,2470.553,2022-8-10T02:38:50Z
2022-08-10T00:40:05Z,42.805,6.029,13.3007,4.60044,2470.567,2022-8-10T02:41:53Z
2022-08-10T00:43:08Z,42.805,6.029,13.3007,4.60043,2470.577,2022-8-10T02:44:56Z
2022-08-10T00:46:11Z,42.805,6.029,13.3006,4.60044,2470.591,2022-8-10T02:48:00Z
2022-08-10T00:49:14Z,42.805,6.029,13.3005,4.60044,2470.6,2022-8-10T02:51:03Z
2022-08-10T00:52:17Z,42.805,6.029,13.3004,4.60046,2470.6,2022-8-10T02:54:06Z
2022-08-10T00:55:20Z,42.805,6.029,13.3006,4.60044,2470.591,2022-8-10T02:57:09Z
2022-08-10T00:58:23Z,42.805,6.029,13.3003,4.60046,2470.6,2022-8-10T03:00:12Z
2022-08-10T01:01:26Z,42.805,6.029,13.3006,4.60043,2470.553,2022-8-10T03:03:15Z
2022-08-10T01:04:30Z,42.805,6.029,13.3008,4.60044,2470.544,2022-8-10T03:06:18Z
2022-08-10T01:07:33Z,42.805,6.029,13.3004,4.60046,2470.577,2022-8-10T03:09:21Z
2022-08-10T01:10:36Z,42.805,6.029,13.3006,4.60057,2470.624,2022-8-10T03:12:25Z
2022-08-10T01:13:39Z,42.805,6.029,13.3010,4.60044,2470.567,2022-8-10T03:15:28Z
2022-08-10T01:16:42Z,42.805,6.029,13.3007,4.60045,2470.591,2022-8-10T03:18:31Z
2022-08-10T01:19:45Z,42.805,6.029,13.3005,4.60044,2470.577,2022-8-10T03:21:34Z
2022-08-10T01:22:48Z,42.805,6.029,13.3004,4.60048,2470.577,2022-8-10T03:24:37Z
2022-08-10T01:25:51Z,42.805,6.029,13.3010,4.60045,2470.577,2022-8-10T03:27:40Z
2022-08-10T01:28:54Z,42.805,6.029,13.3008,4.60046,2470.614,2022-8-10T03:30:43Z
2022-08-10T01:31:58Z,42.805,6.029,13.3004,4.60045,2470.591,2022-8-10T03:33:46Z
2022-08-10T01:35:01Z,42.805,6.029,13.3008,4.60044,2470.614,2022-8-10T03:36:50Z
2022-08-10T01:38:04Z,42.805,6.029,13.3009,4.60045,2470.577,2022-8-10T03:39:53Z
2022-08-10T01:41:07Z,42.805,6.029,13.3006,4.60045,2470.577,2022-8-10T03:42:56Z
2022-08-10T01:44:10Z,42.805,6.029,13.3008,4.60044,2470.6,2022-8-10T03:45:59Z
2022-08-10T01:47:13Z,42.805,6.029,13.3010,4.60045,2470.6,2022-8-10T03:49:02Z
2022-08-10T01:50:16Z,42.805,6.029,13.3005,4.60044,2470.6,2022-8-10T03:52:05Z
2022-08-10T01:53:19Z,42.805,6.029,13.3006,4.60044,2470.6,2022-8-10T03:55:08Z
2022-08-10T01:56:23Z,42.805,6.029,13.3004,4.60047,2470.614,2022-8-10T03:58:11Z
2022-08-10T01:59:26Z,42.805,6.029,13.3009,4.60043,2470.614,2022-8-10T04:01:14Z
2022-08-10T02:02:29Z,42.805,6.029,13.3008,4.60042,2470.6,2022-8-10T04:04:18Z
2022-08-10T02:05:32Z,42.805,6.029,13.3007,4.60045,2470.6,2022-8-10T04:07:21Z
2022-08-10T02:08:35Z,42.805,6.029,13.3006,4.60045,2470.646,2022-8-10T04:10:24Z
2022-08-10T02:11:38Z,42.805,6.029,13.3005,4.60057,2470.637,2022-8-10T04:13:27Z
2022-08-10T02:14:41Z,42.805,6.029,13.3006,4.60042,2470.614,2022-8-10T04:16:30Z
2022-08-10T02:17:44Z,42.805,6.029,13.3006,4.60046,2470.624,2022-8-10T04:19:33Z
2022-08-10T02:20:48Z,42.805,6.029,13.3007,4.60042,2470.614,2022-8-10T04:22:36Z
2022-08-10T02:23:51Z,42.805,6.029,13.3007,4.60044,2470.577,2022-8-10T04:25:39Z
2022-08-10T02:26:54Z,42.805,6.029,13.3012,4.60043,2470.6,2022-8-10T04:28:43Z
2022-08-10T02:29:57Z,42.805,6.029,13.3008,4.60044,2470.624,2022-8-10T04:31:46Z
2022-08-10T02:33:00Z,42.805,6.029,13.3006,4.60044,2470.6,2022-8-10T04:34:49Z
2022-08-10T02:36:03Z,42.805,6.029,13.3005,4.60044,2470.646,2022-8-10T04:37:52Z
2022-08-10T02:39:06Z,42.805,6.029,13.3006,4.60044,2470.6,2022-8-10T04:40:55Z
2022-08-10T02:42:09Z,42.805,6.029,13.3006,4.60044,2470.624,2022-8-10T04:43:58Z
2022-08-10T02:45:13Z,42.805,6.029,13.3007,4.60043,2470.6,2022-8-10T04:47:01Z
2022-08-10T02:48:16Z,42.805,6.029,13.3006,4.60043,2470.637,2022-8-10T04:50:04Z
2022-08-10T02:51:19Z,42.805,6.029,13.3008,4.60043,2470.624,2022-8-10T04:53:08Z
2022-08-10T02:54:22Z,42.805,6.029,13.3004,4.60044,2470.67,2022-8-10T04:56:11Z
2022-08-10T02:57:25Z,42.805,6.029,13.3009,4.60044,2470.646,2022-8-10T04:59:14Z
2022-08-10T03:00:28Z,42.805,6.029,13.3008,4.60045,2470.637,2022-8-10T05:02:17Z
2022-08-10T03:03:31Z,42.805,6.029,13.3005,4.60042,2470.6,2022-8-10T05:05:20Z
2022-08-10T03:06:34Z,42.805,6.029,13.3006,4.60043,2470.661,2022-8-10T05:08:23Z
2022-08-10T03:09:37Z,42.805,6.029,13.3002,4.60042,2470.624,2022-8-10T05:11:26Z
2022-08-10T03:12:41Z,42.805,6.029,13.3004,4.60044,2470.61,2022-8-10T05:14:29Z
2022-08-10T03:15:44Z,42.805,6.029,13.3011,4.60044,2470.661,2022-8-10T05:17:33Z
2022-08-10T03:18:47Z,42.805,6.029,13.3007,4.60047,2470.624,2022-8-10T05:20:36Z
2022-08-10T03:21:50Z,42.805,6.029,13.3009,4.60044,2470.637,2022-8-10T05:23:39Z
2022-08-10T03:24:53Z,42.805,6.029,13.3005,4.60044,2470.624,2022-8-10T05:26:42Z
2022-08-10T03:27:56Z,42.805,6.029,13.3009,4.60043,2470.624,2022-8-10T05:29:45Z
2022-08-10T03:30:59Z,42.805,6.029,13.3004,4.60044,2470.646,2022-8-10T05:32:48Z
2022-08-10T03:34:02Z,42.805,6.029,13.3005,4.60044,2470.624,2022-8-10T05:35:51Z
2022-08-10T03:37:06Z,42.805,6.029,13.3006,4.60042,2470.661,2022-8-10T05:38:54Z
2022-08-10T03:40:09Z,42.805,6.029,13.3009,4.60043,2470.661,2022-8-10T05:41:57Z
2022-08-10T03:43:12Z,42.805,6.029,13.3009,4.60043,2470.646,2022-8-10T05:45:01Z
2022-08-10T03:46:15Z,42.805,6.029,13.3006,4.60051,2470.646,2022-8-10T05:48:04Z
2022-08-10T03:49:18Z,42.805,6.029,13.3004,4.60043,2470.67,2022-8-10T05:51:07Z
2022-08-10T03:52:21Z,42.805,6.029,13.3006,4.60043,2470.684,2022-8-10T05:54:10Z
2022-08-10T03:55:24Z,42.805,6.029,13.3009,4.60042,2470.646,2022-8-10T05:57:13Z
2022-08-10T03:58:27Z,42.805,6.029,13.3006,4.60042,2470.661,2022-8-10T06:00:16Z
2022-08-10T04:01:31Z,42.805,6.029,13.3011,4.60046,2470.67,2022-8-10T06:03:19Z
2022-08-10T04:04:34Z,42.805,6.029,13.3007,4.60043,2470.661,2022-8-10T06:06:22Z
2022-08-10T04:07:37Z,42.805,6.029,13.3006,4.60042,2470.67,2022-8-10T06:09:26Z
2022-08-10T04:10:40Z,42.805,6.029,13.3003,4.60044,2470.637,2022-8-10T06:12:29Z
2022-08-10T04:13:43Z,42.805,6.029,13.3007,4.60042,2470.646,2022-8-10T06:15:32Z
2022-08-10T04:16:46Z,42.805,6.029,13.3008,4.60044,2470.661,2022-8-10T06:18:35Z
2022-08-10T04:19:49Z,42.805,6.029,13.3006,4.60042,2470.661,2022-8-10T06:21:38Z
2022-08-10T04:22:52Z,42.805,6.029,13.3006,4.60042,2470.693,2022-8-10T06:24:41Z
2022-08-10T04:25:55Z,42.805,6.029,13.3008,4.60042,2470.646,2022-8-10T06:27:44Z
2022-08-10T04:28:59Z,42.805,6.029,13.3006,4.60042,2470.646,2022-8-10T06:30:47Z
2022-08-10T04:32:02Z,42.805,6.029,13.3009,4.60044,2470.684,2022-8-10T06:33:51Z
2022-08-10T04:35:05Z,42.805,6.029,13.3002,4.60042,2470.637,2022-8-10T06:36:54Z
2022-08-10T04:38:08Z,42.805,6.029,13.3007,4.60044,2470.646,2022-8-10T06:39:57Z
2022-08-10T04:41:11Z,42.805,6.029,13.3004,4.60044,2470.684,2022-8-10T06:43:00Z
2022-08-10T04:44:14Z,42.805,6.029,13.3006,4.60043,2470.684,2022-8-10T06:46:03Z
2022-08-10T04:47:17Z,42.805,6.029,13.3007,4.60046,2470.67,2022-8-10T06:49:06Z
2022-08-10T04:50:20Z,42.805,6.029,13.3006,4.60045,2470.67,2022-8-10T06:52:09Z
2022-08-10T04:53:24Z,42.805,6.029,13.3009,4.60043,2470.661,2022-8-10T06:55:12Z
2022-08-10T04:56:27Z,42.805,6.029,13.3005,4.60046,2470.646,2022-8-10T06:58:15Z
2022-08-10T04:59:30Z,42.805,6.029,13.3006,4.60043,2470.684,2022-8-10T07:01:19Z
2022-08-10T05:02:33Z,42.805,6.029,13.3007,4.60043,2470.684,2022-8-10T07:04:22Z
2022-08-10T05:05:36Z,42.805,6.029,13.3007,4.60045,2470.67,2022-8-10T07:07:25Z
2022-08-10T05:08:39Z,42.805,6.029,13.3007,4.60043,2470.693,2022-8-10T07:10:28Z
2022-08-10T05:11:42Z,42.805,6.029,13.3006,4.60043,2470.707,2022-8-10T07:13:31Z
2022-08-10T05:14:45Z,42.805,6.029,13.3006,4.60043,2470.693,2022-8-10T07:16:34Z
2022-08-10T05:17:49Z,42.805,6.029,13.3006,4.60042,2470.707,2022-8-10T07:19:37Z
2022-08-10T05:20:52Z,42.805,6.029,13.3007,4.60046,2470.67,2022-8-10T07:22:40Z
2022-08-10T05:23:55Z,42.805,6.029,13.3006,4.60048,2470.67,2022-8-10T07:25:44Z
2022-08-10T05:26:58Z,42.805,6.029,13.3006,4.60042,2470.67,2022-8-10T07:28:47Z
2022-08-10T05:30:01Z,42.805,6.029,13.3004,4.60044,2470.684,2022-8-10T07:31:50Z
2022-08-10T05:33:04Z,42.805,6.029,13.3004,4.60042,2470.67,2022-8-10T07:34:53Z
2022-08-10T05:36:07Z,42.805,6.029,13.3005,4.60044,2470.693,2022-8-10T07:37:56Z
2022-08-10T05:39:10Z,42.805,6.029,13.3006,4.60042,2470.684,2022-8-10T07:40:59Z
2022-08-10T05:42:14Z,42.805,6.029,13.3008,4.60042,2470.707,2022-8-10T07:44:02Z
2022-08-10T05:45:17Z,42.805,6.029,13.3004,4.60043,2470.67,2022-8-10T07:47:05Z
2022-08-10T05:48:20Z,42.805,6.029,13.3006,4.60041,2470.693,2022-8-10T07:50:09Z
2022-08-10T05:51:23Z,42.805,6.029,13.3006,4.60042,2470.684,2022-8-10T07:53:12Z
2022-08-10T05:54:26Z,42.805,6.029,13.3003,4.60043,2470.693,2022-8-10T07:56:15Z
2022-08-10T05:57:29Z,42.805,6.029,13.3006,4.60042,2470.67,2022-8-10T07:59:18Z
2022-08-10T06:00:32Z,42.805,6.029,13.3005,4.60044,2470.646,2022-8-10T08:02:21Z
2022-08-10T06:03:35Z,42.805,6.029,13.3005,4.60043,2470.693,2022-8-10T08:05:24Z
2022-08-10T06:06:39Z,42.805,6.029,13.3002,4.60043,2470.693,2022-8-10T08:08:27Z
2022-08-10T06:09:42Z,42.805,6.029,13.3006,4.60045,2470.684,2022-8-10T08:11:30Z
2022-08-10T06:12:45Z,42.805,6.029,13.3005,4.60043,2470.707,2022-8-10T08:14:34Z
2022-08-10T06:15:48Z,42.805,6.029,13.3006,4.60046,2470.684,2022-8-10T08:17:37Z
2022-08-10T06:18:51Z,42.805,6.029,13.3002,4.60042,2470.646,2022-8-10T08:20:40Z
2022-08-10T06:21:54Z,42.805,6.029,13.3009,4.60045,2470.693,2022-8-10T08:23:43Z
2022-08-10T06:24:57Z,42.805,6.029,13.3009,4.60043,2470.646,2022-8-10T08:26:46Z
2022-08-10T06:28:00Z,42.805,6.029,13.3009,4.60044,2470.693,2022-8-10T08:29:49Z
2022-08-10T06:31:04Z,42.805,6.029,13.3006,4.60042,2470.661,2022-8-10T08:32:52Z
2022-08-10T06:34:07Z,42.805,6.029,13.3006,4.60044,2470.67,2022-8-10T08:35:55Z
2022-08-10T06:37:10Z,42.805,6.029,13.3010,4.60042,2470.646,2022-8-10T08:38:59Z
2022-08-10T06:40:13Z,42.805,6.029,13.3004,4.60041,2470.646,2022-8-10T08:42:02Z
2022-08-10T06:43:16Z,42.805,6.029,13.3006,4.60042,2470.707,2022-8-10T08:45:05Z
2022-08-10T06:46:19Z,42.805,6.029,13.3004,4.60042,2470.646,2022-8-10T08:48:08Z
2022-08-10T06:49:22Z,42.805,6.029,13.3004,4.60042,2470.624,2022-8-10T08:51:11Z
2022-08-10T06:52:25Z,42.805,6.029,13.3008,4.60044,2470.684,2022-8-10T08:54:14Z
2022-08-10T06:55:28Z,42.805,6.029,13.3008,4.60042,2470.637,2022-8-10T08:57:17Z
2022-08-10T06:58:32Z,42.805,6.029,13.3006,4.60043,2470.67,2022-8-10T09:00:20Z
2022-08-10T07:01:35Z,42.805,6.029,13.3008,4.60042,2470.637,2022-8-10T09:03:24Z
2022-08-10T07:04:38Z,42.805,6.029,13.3006,4.60044,2470.67,2022-8-10T09:06:27Z
2022-08-10T07:07:41Z,42.805,6.029,13.3000,4.60043,2470.661,2022-8-10T09:09:30Z
2022-08-10T07:10:44Z,42.805,6.029,13.3006,4.60042,2470.646,2022-8-10T09:12:33Z
2022-08-10T07:13:47Z,42.805,6.029,13.3011,4.60045,2470.646,2022-8-10T09:15:36Z
2022-08-10T07:16:50Z,42.805,6.029,13.3008,4.60044,2470.646,2022-8-10T09:18:39Z
2022-08-10T07:19:53Z,42.805,6.029,13.3003,4.60044,2470.646,2022-8-10T09:21:42Z
2022-08-10T07:22:57Z,42.805,6.029,13.3005,4.60044,2470.624,2022-8-10T09:24:45Z
2022-08-10T07:26:00Z,42.805,6.029,13.3009,4.60045,2470.646,2022-8-10T09:27:48Z
2022-08-10T07:29:03Z,42.805,6.029,13.3009,4.60047,2470.637,2022-8-10T09:30:52Z
2022-08-10T07:32:06Z,42.805,6.029,13.3007,4.60043,2470.67,2022-8-10T09:33:55Z
2022-08-10T07:35:09Z,42.805,6.029,13.3011,4.60044,2470.624,2022-8-10T09:36:58Z
2022-08-10T07:38:12Z,42.805,6.029,13.3009,4.60042,2470.646,2022-8-10T09:40:01Z
2022-08-10T07:41:15Z,42.805,6.029,13.3008,4.60043,2470.637,2022-8-10T09:43:04Z
2022-08-10T07:44:18Z,42.805,6.029,13.3004,4.60041,2470.646,2022-8-10T09:46:07Z
2022-08-10T07:47:22Z,42.805,6.029,13.3009,4.60043,2470.67,2022-8-10T09:49:10Z
2022-08-10T07:50:25Z,42.805,6.029,13.3007,4.60044,2470.637,2022-8-10T09:52:13Z
2022-08-10T07:53:28Z,42.805,6.029,13.3004,4.60042,2470.661,2022-8-10T09:55:17Z
2022-08-10T07:56:31Z,42.805,6.029,13.3006,4.60043,2470.637,2022-8-10T09:58:20Z
2022-08-10T07:59:34Z,42.805,6.029,13.3006,4.60046,2470.6,2022-8-10T10:01:23Z
2022-08-10T08:02:37Z,42.805,6.029,13.3004,4.60044,2470.624,2022-8-10T10:04:26Z
2022-08-10T08:05:40Z,42.805,6.029,13.3008,4.60042,2470.661,2022-8-10T10:07:29Z
2022-08-10T08:08:43Z,42.805,6.029,13.3004,4.60049,2470.624,2022-8-10T10:10:32Z
2022-08-10T08:11:47Z,42.805,6.029,13.3006,4.60045,2470.6,2022-8-10T10:13:35Z
2022-08-10T08:14:50Z,42.805,6.029,13.3006,4.60045,2470.646,2022-8-10T10:16:38Z
2022-08-10T08:17:53Z,42.805,6.029,13.3007,4.60052,2470.637,2022-8-10T10:19:42Z
2022-08-10T08:20:56Z,42.805,6.029,13.3009,4.60044,2470.6,2022-8-10T10:22:45Z
2022-08-10T08:23:59Z,42.805,6.029,13.3006,4.60044,2470.637,2022-8-10T10:25:48Z
2022-08-10T08:27:02Z,42.805,6.029,13.3007,4.60046,2470.614,2022-8-10T10:28:51Z
2022-08-10T08:30:05Z,42.805,6.029,13.3006,4.60052,2470.614,2022-8-10T10:31:54Z
2022-08-10T08:33:08Z,42.805,6.029,13.3004,4.60046,2470.624,2022-8-10T10:34:57Z
2022-08-10T08:36:12Z,42.805,6.029,13.3004,4.60044,2470.624,2022-8-10T10:38:00Z
2022-08-10T08:39:15Z,42.805,6.029,13.3006,4.60044,2470.614,2022-8-10T10:41:03Z
2022-08-10T08:42:18Z,42.805,6.029,13.3011,4.60043,2470.637,2022-8-10T10:44:07Z
2022-08-10T08:45:21Z,42.805,6.029,13.3008,4.60043,2470.614,2022-8-10T10:47:10Z
2022-08-10T08:48:24Z,42.805,6.029,13.3010,4.60043,2470.614,2022-8-10T10:50:13Z
2022-08-10T08:51:27Z,42.805,6.029,13.3005,4.60053,2470.614,2022-8-10T10:53:16Z
2022-08-10T08:54:30Z,42.805,6.029,13.3006,4.60041,2470.586,2022-8-10T10:56:19Z
2022-08-10T08:57:33Z,42.805,6.029,13.3007,4.60044,2470.6,2022-8-10T10:59:22Z
2022-08-10T09:00:37Z,42.805,6.029,13.3007,4.60046,2470.6,2022-8-10T11:02:25Z
2022-08-10T09:03:40Z,42.805,6.029,13.3003,4.60062,2470.6,2022-8-10T11:05:28Z
2022-08-10T09:06:43Z,42.805,6.029,13.3008,4.60046,2470.577,2022-8-10T11:08:32Z
2022-08-10T09:09:46Z,42.805,6.029,13.3006,4.60044,2470.577,2022-8-10T11:11:35Z
2022-08-10T09:12:49Z,42.805,6.029,13.3006,4.60044,2470.553,2022-8-10T11:14:38Z
2022-08-10T09:15:52Z,42.805,6.029,13.3006,4.60044,2470.624,2022-8-10T11:17:41Z
2022-08-10T09:18:55Z,42.805,6.029,13.3006,4.60043,2470.614,2022-8-10T11:20:44Z
2022-08-10T09:21:58Z,42.805,6.029,13.3006,4.60046,2470.563,2022-8-10T11:23:47Z
2022-08-10T09:25:02Z,42.805,6.029,13.3009,4.60043,2470.591,2022-8-10T11:26:50Z
2022-08-10T09:28:05Z,42.805,6.029,13.3006,4.60044,2470.553,2022-8-10T11:29:53Z
2022-08-10T09:31:08Z,42.805,6.029,13.3004,4.60043,2470.577,2022-8-10T11:32:57Z
2022-08-10T09:34:11Z,42.805,6.029,13.3006,4.60046,2470.553,2022-8-10T11:36:00Z
2022-08-10T09:37:14Z,42.805,6.029,13.3002,4.60046,2470.591,2022-8-10T11:39:03Z
2022-08-10T09:40:17Z,42.805,6.029,13.3005,4.60055,2470.553,2022-8-10T11:42:06Z
2022-08-10T09:43:20Z,42.805,6.029,13.3006,4.60042,2470.553,2022-8-10T11:45:09Z
2022-08-10T09:46:23Z,42.805,6.029,13.3007,4.60044,2470.6,2022-8-10T11:48:12Z
2022-08-10T09:49:27Z,42.805,6.029,13.3006,4.60042,2470.567,2022-8-10T11:51:15Z
2022-08-10T09:52:30Z,42.805,6.029,13.3005,4.60042,2470.567,2022-8-10T11:54:18Z
2022-08-10T09:55:33Z,42.805,6.029,13.3009,4.60042,2470.567,2022-8-10T11:57:22Z
2022-08-10T09:58:36Z,42.805,6.029,13.3005,4.60044,2470.553,2022-8-10T12:00:25Z
2022-08-10T10:01:39Z,42.805,6.029,13.3006,4.60042,2470.53,2022-8-10T12:03:28Z
2022-08-10T10:04:42Z,42.805,6.029,13.3005,4.60054,2470.567,2022-8-10T12:06:31Z
2022-08-10T10:07:45Z,42.805,6.029,13.3003,4.60046,2470.553,2022-8-10T12:09:34Z
2022-08-10T10:10:48Z,42.805,6.029,13.3006,4.60044,2470.553,2022-8-10T12:12:37Z
2022-08-10T10:13:52Z,42.805,6.029,13.3006,4.60042,2470.591,2022-8-10T12:15:40Z
2022-08-10T10:16:55Z,42.805,6.029,13.3007,4.60043,2470.53,2022-8-10T12:18:44Z
2022-08-10T10:19:58Z,42.805,6.029,13.3004,4.60043,2470.53,2022-8-10T12:21:47Z
2022-08-10T10:23:01Z,42.805,6.029,13.3007,4.60042,2470.544,2022-8-10T12:24:50Z
2022-08-10T10:26:04Z,42.805,6.029,13.3001,4.60042,2470.53,2022-8-10T12:27:53Z
2022-08-10T10:29:07Z,42.805,6.029,13.3007,4.60042,2470.544,2022-8-10T12:30:56Z
2022-08-10T10:32:10Z,42.805,6.029,13.3006,4.60042,2470.53,2022-8-10T12:33:59Z
2022-08-10T10:35:13Z,42.805,6.029,13.3006,4.60042,2470.53,2022-8-10T12:37:02Z
2022-08-10T10:38:17Z,42.805,6.029,13.3002,4.60041,2470.53,2022-8-10T12:40:05Z
2022-08-10T10:41:20Z,42.805,6.029,13.3004,4.60042,2470.544,2022-8-10T12:43:09Z
2022-08-10T10:44:23Z,42.805,6.029,13.3006,4.60046,2470.53,2022-8-10T12:46:12Z
2022-08-10T10:47:26Z,42.805,6.029,13.3007,4.60043,2470.53,2022-8-10T12:49:15Z
2022-08-10T10:50:29Z,42.805,6.029,13.3009,4.60044,2470.53,2022-8-10T12:52:18Z
2022-08-10T10:53:32Z,42.805,6.029,13.3001,4.60042,2470.507,2022-8-10T12:55:21Z
2022-08-10T10:56:35Z,42.805,6.029,13.3004,4.60044,2470.53,2022-8-10T12:58:24Z
2022-08-10T10:59:38Z,42.805,6.029,13.3005,4.60057,2470.507,2022-8-10T13:01:27Z
2022-08-10T11:02:42Z,42.805,6.029,13.3004,4.60042,2470.507,2022-8-10T13:04:30Z
2022-08-10T11:05:45Z,42.805,6.029,13.3004,4.60043,2470.52,2022-8-10T13:07:34Z
2022-08-10T11:08:48Z,42.805,6.029,13.3006,4.60041,2470.53,2022-8-10T13:10:37Z
2022-08-10T11:11:51Z,42.805,6.029,13.3007,4.60042,2470.507,2022-8-10T13:13:40Z
2022-08-10T11:14:54Z,42.805,6.029,13.3006,4.60041,2470.544,2022-8-10T13:16:43Z
2022-08-10T11:17:57Z,42.805,6.029,13.3006,4.60042,2470.483,2022-8-10T13:19:46Z
2022-08-10T11:21:00Z,42.805,6.029,13.3003,4.60043,2470.483,2022-8-10T13:22:49Z
2022-08-10T11:24:03Z,42.805,6.029,13.3006,4.60044,2470.53,2022-8-10T13:25:52Z
2022-08-10T11:27:07Z,42.805,6.029,13.3006,4.60042,2470.497,2022-8-10T13:28:55Z
2022-08-10T11:30:10Z,42.805,6.029,13.3009,4.60044,2470.544,2022-8-10T13:31:59Z
2022-08-10T11:33:13Z,42.805,6.029,13.3001,4.60043,2470.483,2022-8-10T13:35:02Z
2022-08-10T11:36:16Z,42.805,6.029,13.3009,4.60044,2470.507,2022-8-10T13:38:05Z
2022-08-10T11:39:19Z,42.805,6.029,13.3005,4.60042,2470.507,2022-8-10T13:41:08Z
2022-08-10T11:42:22Z,42.805,6.029,13.3006,4.60046,2470.507,2022-8-10T13:44:11Z
2022-08-10T11:45:25Z,42.805,6.029,13.3009,4.60051,2470.507,2022-8-10T13:47:14Z
2022-08-10T11:48:28Z,42.805,6.029,13.3009,4.60047,2470.507,2022-8-10T13:50:17Z
2022-08-10T11:51:32Z,42.805,6.029,13.3006,4.60045,2470.53,2022-8-10T13:53:20Z
2022-08-10T11:54:35Z,42.805,6.029,13.3008,4.60049,2470.483,2022-8-10T13:56:24Z
2022-08-10T11:57:38Z,42.805,6.029,13.3009,4.60048,2470.52,2022-8-10T13:59:27Z
2022-08-10T12:00:41Z,42.805,6.029,13.3008,4.60042,2470.53,2022-8-10T14:02:30Z
2022-08-10T12:03:44Z,42.805,6.029,13.3013,4.60046,2470.507,2022-8-10T14:05:33Z
2022-08-10T12:06:47Z,42.805,6.029,13.3009,4.60047,2470.483,2022-8-10T14:08:36Z
2022-08-10T12:09:50Z,42.805,6.029,13.3006,4.60044,2470.52,2022-8-10T14:11:39Z
2022-08-10T12:12:53Z,42.805,6.029,13.3011,4.60052,2470.53,2022-8-10T14:14:42Z
2022-08-10T12:15:57Z,42.805,6.029,13.3007,4.60047,2470.544,2022-8-10T14:17:45Z
2022-08-10T12:19:00Z,42.805,6.029,13.3001,4.60040,2470.53,2022-8-10T14:20:49Z
2022-08-10T12:22:03Z,42.805,6.029,13.3008,4.60041,2470.507,2022-8-10T14:23:52Z
2022-08-10T12:25:06Z,42.805,6.029,13.3005,4.60044,2470.52,2022-8-10T14:26:55Z
2022-08-10T12:28:09Z,42.805,6.029,13.3006,4.60047,2470.53,2022-8-10T14:29:58Z
2022-08-10T12:31:12Z,42.805,6.029,13.3010,4.60045,2470.46,2022-8-10T14:33:01Z
2022-08-10T12:34:15Z,42.805,6.029,13.3009,4.60045,2470.507,2022-8-10T14:36:04Z
2022-08-10T12:37:18Z,42.805,6.029,13.3015,4.60042,2470.507,2022-8-10T14:39:07Z
2022-08-10T12:40:22Z,42.805,6.029,13.3019,4.60042,2470.507,2022-8-10T14:42:10Z
2022-08-10T12:43:25Z,42.805,6.029,13.3011,4.60044,2470.483,2022-8-10T14:45:14Z
2022-08-10T12:46:28Z,42.805,6.029,13.3019,4.60050,2470.544,2022-8-10T14:48:17Z
2022-08-10T12:49:31Z,42.805,6.029,13.3010,4.60046,2470.52,2022-8-10T14:51:20Z
2022-08-10T12:52:34Z,42.805,6.029,13.3009,4.60060,2470.53,2022-8-10T14:54:23Z
2022-08-10T12:55:37Z,42.805,6.029,13.3009,4.60044,2470.53,2022-8-10T14:57:26Z
2022-08-10T12:58:40Z,42.805,6.029,13.3008,4.60049,2470.507,2022-8-10T15:00:29Z
2022-08-10T13:01:43Z,42.805,6.029,13.3008,4.60050,2470.52,2022-8-10T15:03:32Z
2022-08-10T13:04:47Z,42.805,6.029,13.3009,4.60052,2470.507,2022-8-10T15:06:35Z
2022-08-10T13:07:50Z,42.805,6.029,13.3009,4.60057,2470.507,2022-8-10T15:09:39Z
2022-08-10T13:10:53Z,42.805,6.029,13.3007,4.60055,2470.53,2022-8-10T15:12:42Z
2022-08-10T13:13:56Z,42.805,6.029,13.3008,4.60044,2470.553,2022-8-10T15:15:45Z
2022-08-10T13:16:59Z,42.805,6.029,13.3005,4.60045,2470.53,2022-8-10T15:18:48Z
2022-08-10T13:20:02Z,42.805,6.029,13.3008,4.60045,2470.553,2022-8-10T15:21:51Z
2022-08-10T13:23:05Z,42.805,6.029,13.3004,4.60046,2470.507,2022-8-10T15:24:54Z
2022-08-10T13:26:08Z,42.805,6.029,13.3014,4.60046,2470.507,2022-8-10T15:27:57Z
2022-08-10T13:29:12Z,42.805,6.029,13.3006,4.60046,2470.53,2022-8-10T15:31:00Z
2022-08-10T13:32:15Z,42.805,6.029,13.3004,4.60044,2470.553,2022-8-10T15:34:04Z
2022-08-10T13:35:18Z,42.805,6.029,13.3006,4.60043,2470.507,2022-8-10T15:37:07Z
2022-08-10T13:38:21Z,42.805,6.029,13.3007,4.60044,2470.53,2022-8-10T15:40:10Z
2022-08-10T13:41:24Z,42.805,6.029,13.3009,4.60044,2470.544,2022-8-10T15:43:13Z
2022-08-10T13:44:27Z,42.805,6.029,13.3009,4.60044,2470.544,2022-8-10T15:46:16Z
2022-08-10T13:47:30Z,42.805,6.029,13.3006,4.60046,2470.53,2022-8-10T15:49:19Z
2022-08-10T13:50:34Z,42.805,6.029,13.3007,4.60044,2470.553,2022-8-10T15:52:22Z
2022-08-10T13:53:37Z,42.805,6.029,13.3008,4.60046,2470.553,2022-8-10T15:55:25Z
2022-08-10T13:56:40Z,42.805,6.029,13.3009,4.60058,2470.539,2022-8-10T15:58:29Z
2022-08-10T13:59:43Z,42.805,6.029,13.3008,4.60044,2470.53,2022-8-10T16:01:32Z
2022-08-10T14:02:46Z,42.805,6.029,13.3004,4.60044,2470.591,2022-8-10T16:04:35Z
2022-08-10T14:05:49Z,42.805,6.029,13.3006,4.60046,2470.553,2022-8-10T16:07:38Z
2022-08-10T14:08:52Z,42.805,6.029,13.3006,4.60044,2470.577,2022-8-10T16:10:41Z
2022-08-10T14:11:55Z,42.805,6.029,13.3009,4.60046,2470.577,2022-8-10T16:13:44Z
2022-08-10T14:14:58Z,42.805,6.029,13.3010,4.60047,2470.53,2022-8-10T16:16:47Z
2022-08-10T14:18:02Z,42.805,6.029,13.3008,4.60046,2470.591,2022-8-10T16:19:50Z
2022-08-10T14:21:05Z,42.805,6.029,13.3004,4.60046,2470.553,2022-8-10T16:22:54Z
2022-08-10T14:24:08Z,42.805,6.029,13.3006,4.60046,2470.591,2022-8-10T16:25:57Z
2022-08-10T14:27:11Z,42.805,6.029,13.3007,4.60045,2470.577,2022-8-10T16:29:00Z
2022-08-10T14:30:14Z,42.805,6.029,13.3004,4.60050,2470.6,2022-8-10T16:32:03Z
2022-08-10T14:33:17Z,42.805,6.029,13.3006,4.60052,2470.614,2022-8-10T16:35:06Z
2022-08-10T14:36:20Z,42.805,6.029,13.3011,4.60051,2470.614,2022-8-10T16:38:09Z
2022-08-10T14:39:24Z,42.805,6.029,13.3009,4.60046,2470.614,2022-8-10T16:41:12Z
2022-08-10T14:42:27Z,42.805,6.029,13.3008,4.60052,2470.577,2022-8-10T16:44:15Z
2022-08-10T14:45:30Z,42.805,6.029,13.3007,4.60046,2470.624,2022-8-10T16:47:19Z
2022-08-10T14:48:33Z,42.805,6.029,13.3006,4.60046,2470.614,2022-8-10T16:50:22Z
2022-08-10T14:51:36Z,42.805,6.029,13.3004,4.60049,2470.6,2022-8-10T16:53:25Z
2022-08-10T14:54:39Z,42.805,6.029,13.3006,4.60052,2470.637,2022-8-10T16:56:28Z
2022-08-10T14:57:42Z,42.805,6.029,13.3010,4.60051,2470.614,2022-8-10T16:59:31Z
2022-08-10T15:00:45Z,42.805,6.029,13.3008,4.60049,2470.6,2022-8-10T17:02:34Z
2022-08-10T15:03:49Z,42.805,6.029,13.3007,4.60048,2470.624,2022-8-10T17:05:37Z
2022-08-10T15:06:52Z,42.805,6.029,13.3007,4.60045,2470.624,2022-8-10T17:08:40Z
2022-08-10T15:09:55Z,42.805,6.029,13.3008,4.60048,2470.6,2022-8-10T17:11:44Z
2022-08-10T15:12:58Z,42.805,6.029,13.3004,4.60049,2470.6,2022-8-10T17:14:47Z